Regional Weather Roundup
Issued by NWS

Home | Current Version | Previous Version | Graphics & Text | Print | Product List | Glossary On
Versions: 1 2 3 4 5 6 7 8 9 10 11 12 13 14 15 16 17 18 19 20 21 22 23 24 25 26 27 28 29 30 31 32 33 34 35 36 37 38 39 40 41 42 43 44 45 46 47 48 49 50
000
ASUS43 KMPX 271201
RWRMN
WEATHER ROUNDUP FOR MINNESOTA
NATIONAL WEATHER SERVICE TWIN CITIES/CHANHASSEN MN
700 AM CDT WED AUG 27 2014


NOTE: "FAIR" INDICATES FEW OR NO CLOUDS BELOW 12,000 FEET WITH NO
SIGNIFICANT WEATHER AND/OR OBSTRUCTIONS TO VISIBILITY. N/A MEANS
CURRENT SKY AND/OR WEATHER CONDITIONS ARE NOT AVAILABLE.

MNZ060>063-068>070-271300-
   Twin Cities Metro

CITY           SKY/WX    TMP DP  RH WIND       PRES   REMARKS
TWIN CITIES    PTCLDY    60  55  83 NE6       30.20R
6HR MIN TEMP:  59; 6HR MAX TEMP:  65; 6HR PCP: TRACE;

ST PAUL        PTCLDY    59  56  89 NE5       30.20S
CRYSTAL        CLEAR     58  54  86 NE3       30.19R
BLAINE         CLEAR     57  57 100 CALM      30.20S
LAKEVILLE      PTCLDY    55  55 100 CALM      30.19S
EDEN PRAIRIE   CLEAR     61  55  81 VRB6      30.19R
6HR MIN TEMP:  60; 6HR MAX TEMP:  65; 6HR PCP: TRACE;

SOUTH ST PAUL  CLEAR     60  55  81 CALM      30.19S
LAKE ELMO      FAIR      55  55 100 CALM      30.21S
$$
MNZ001>005-007-008-013>017-022>024-027-028-271300-
   Northwest Minnesota

CITY           SKY/WX    TMP DP  RH WIND       PRES   REMARKS
BEMIDJI        FOG       41  41 100 CALM      30.19S VSB 1/2
HALLOCK        CLEAR     45  43  93 SE6       30.16R FOG
ROSEAU         CLOUDY    45  39  81 CALM      30.17S HAZE
WARROAD        CLEAR     46  43  87 S5        30.17S
THIEF RVR FALL CLOUDY    48  48 100 S3        30.18S VSB<1/4
CROOKSTON      FOG       46  45  93 S5        30.19R VSB 1/2
FOSSTON        FOG       43  43 100 S6        30.20S VSB<1/4
DETROIT LAKES  CLEAR     54  54 100 CALM      30.20S FOG
MOORHEAD       MOCLDY    54  54 100 CALM      30.19S FOG
PARK RAPIDS    CLOUDY    51  51 100 CALM      30.20S FOG
MAHNOMEN       FOG       50  50 100 CALM      30.19S VSB<1/4
$$
MNZ006-009>011-018-025>026-271300-
   North Central Minnesota

CITY           SKY/WX    TMP DP  RH WIND       PRES   REMARKS
BAUDETTE       MOCLDY    48  46  93 CALM      30.18S
FLAG ISLAND    PTCLDY    57  52  82 SW6       30.15S
INTL FALLS     CLOUDY    42  41  96 CALM      30.19R
6HR MIN TEMP:  35; 6HR MAX TEMP:  42;

WASKISH        CLEAR     46  46 100 S3        30.19R
BIG FORK       FOG       43  41  93 CALM      30.21S VSB<1/4
LONGVILLE      FOG       46  45  93 CALM      30.20S VSB 1/4
GRAND RAPIDS   CLEAR     45  41  87 S5        30.20S
CRANE LAKE     CLEAR     36  36 100 CALM      30.21F
ORR            PTCLDY    37  36  93 CALM      30.18S
COOK           FOG       37  37 100 CALM      30.21R VSB 1/4
WALKER         FAIR      50  49  99 CALM      30.19S FOG
$$
MNZ012-019>021-037-271300-
   Northeast Minnesota

CITY           SKY/WX    TMP DP  RH WIND       PRES   REMARKS
DULUTH         PTCLDY    50  47  89 CALM      30.21R
6HR MIN TEMP:  48; 6HR MAX TEMP:  55; 6HR PCP: TRACE;

ELY            MOCLDY    39  39 100 CALM      30.20S FOG
HIBBING        CLEAR     40  38  93 CALM      30.21R FOG
EVELETH        CLEAR     43  41  93 CALM      30.22R
DULUTH HARBOR  PTCLDY    57  52  82 W5        30.21S
TWO HARBORS    CLEAR     45  39  81 CALM      30.19S
SILVER BAY     CLEAR     43  43 100 CALM      30.18S
GRAND MARAIS     N/A     55  49  80 NW8       30.18R
G MARAIS ARPRT CLEAR     43  39  87 NW3       30.20R
$$
MNZ029>031-032-039>041-046>048-054>057-064-271300-
   West Central Minnesota

CITY           SKY/WX    TMP DP  RH WIND       PRES   REMARKS
FERGUS FALLS   CLOUDY    59  57  94 CALM      30.19S
WHEATON        CLOUDY    54  54 100 CALM      30.21R FOG
MORRIS         PTCLDY    57  55  94 E5        30.19R
ALEXANDRIA     MOCLDY    56  55  97 SE3       30.21S
ELBOW LAKE     MOCLDY    58  57  97 E5        30.19S
WADENA         MOCLDY    55  55 100 CALM      30.20S FOG
GLENWOOD       PTCLDY    55  54  94 NE3       30.21R
APPLETON       MOCLDY    54  52  94 CALM      30.18S FOG
BENSON         PTCLDY    57  55  94 CALM      30.19S
ORTONVILLE     CLEAR     55  54  94 CALM      30.18S
MADISON        FOG       54  52  94 NE3       30.18S VSB 1/4
WILLMAR        FAIR      57  55  94 E5        30.21R
$$
MNZ033>034-036-042>043-049>051-058-059-271300-
   Central Minnesota

CITY           SKY/WX    TMP DP  RH WIND       PRES   REMARKS
ST CLOUD       MOCLDY    57  54  89 CALM      30.20S
6HR MIN TEMP:  57; 6HR MAX TEMP:  63; 6HR PCP: TRACE;

SAUK CENTRE    PTSUNNY   55  55  97 CALM      30.21R
PAYNESVILLE    CLOUDY    55  54  95 CALM      30.21R
AITKIN         HAZE      52  46  82 CALM      30.20S VSB 1/4
PINE RIVER     FOG       52  52 100 CALM      30.23F VSB 1/2
BRAINERD       PTCLDY    53  53 100 CALM      30.21S
STAPLES        CLOUDY    55  55 100 CALM      30.20S
LONG PRAIRIE   FAIR      54  54 100 CALM      30.21S FOG
LITTLE FALLS   CLOUDY    55  54  94 CALM      30.21R
LITCHFIELD     CLEAR     57  57 100 CALM      30.21R
BUFFALO        CLEAR     56  53  88 CALM      30.21S
MAPLE LAKE     PTCLDY    56  55  94 NE3       30.21S
$$
MNZ037-044-045-052-053-271300-
   East Central Minnesota

CITY           SKY/WX    TMP DP  RH WIND       PRES   REMARKS
PRINCETON      MOCLDY    57  54  88 CALM      30.21R
MORA           CLOUDY    54  52  94 CALM      30.22S
CAMBRIDGE      PTCLDY    57  50  77 CALM      30.19R
RUSH CITY      CLOUDY    55  54  96 CALM      30.21S
MOOSE LAKE     PTCLDY    50  50 100 CALM      30.19S
HINCKLEY       CLOUDY    54  54 100 N5        30.21S
CLOQUET        CLEAR     48  46  93 CALM      30.22R
MCGREGOR         N/A     48  46  93 CALM      30.21F VSB 1/2
$$
MNZ071>073-080-081-089-090-097-098-271300-
   Southwest Minnesota

CITY           SKY/WX    TMP DP  RH WIND       PRES   REMARKS
MONTEVIDEO     CLEAR     54  54 100 CALM      30.20R FOG
GRANITE FALLS  CLEAR     55  55  99 CALM      30.19F
CANBY          CLEAR     54  53  97 CALM      30.19S
MARSHALL         N/A     54  50  87 CALM      30.17S VSB 3/4
REDWOOD FALLS  CLEAR     58  56  93 E3        30.18R
OLIVIA         MOCLDY    57  54  88 NE5       30.18R
PIPESTONE      CLEAR     57  54  88 E6        30.16F
WINDOM         PTCLDY    59  57  94 NE5       30.16F
WORTHINGTON    CLEAR     55  54  94 NE5       30.18R
JACKSON        PTCLDY    55  52  88 E3        30.17S
TRACY          CLEAR     55  55  97 CALM      30.18S FOG
SLAYTON        CLEAR     55  54  99 CALM      30.19S
$$
MNZ065>067-074>077-082>085-091>093-271300-
   South Central Minnesota

CITY           SKY/WX    TMP DP  RH WIND       PRES   REMARKS
MANKATO        MOCLDY    61  54  77 E7        30.18S
NEW ULM        MOCLDY    59  57  94 CALM      30.18S
ST JAMES       MOCLDY    61  57  88 N5        30.17F
FAIRMONT       PTCLDY    55  52  88 CALM      30.17S
GLENCOE        CLOUDY    59  55  87 CALM      30.19R
FARIBAULT      MOCLDY    63  54  72 CALM      30.19R
OWATONNA       CLOUDY    61  55  82 E5        30.18S
WASECA         MOCLDY    59  52  77 E3        30.20R
ALBERT LEA     PTCLDY    57  55  94 CALM      30.18R
$$
MNZ078>079-086>088-094>096-271300-
   Southeast Minnesota

CITY           SKY/WX    TMP DP  RH WIND       PRES   REMARKS
ROCHESTER      CLOUDY    61  56  83 NE6       30.19S
6HR MIN TEMP:  59; 6HR MAX TEMP:  63;

RED WING       PTCLDY    61  55  82 CALM      30.18S
STANTON        MOCLDY    59  56  91 N3        30.18R
DODGE CENTER   CLOUDY    61  57  88 CALM      30.19R
WINONA         CLOUDY    61  59  94 CALM      30.17F
AUSTIN         CLEAR     55  54  94 CALM      30.18R
PRESTON        CLOUDY    59  58  97 CALM      30.19S
$$
ABBREVIATIONS USED IN REMARKS
   TC - TEMPERATURES IN CELSIUS
  WCI - WIND CHILL INDEX
   HX - HEAT INDEX
  VSB - VISIBILITY
$$



USA.gov is the U.S. government's official web portal to all federal, state and local government web resources and services.